Regional Weather Roundup
Issued by NWS

Home | Current Version | Previous Version | Graphics & Text | Print | Product List | Glossary On
Versions: 1 2 3 4 5 6 7 8 9 10 11 12 13 14 15 16 17 18 19 20 21 22 23 24 25 26 27 28 29 30 31 32 33 34 35 36 37 38 39 40 41 42 43 44 45 46 47 48 49 50
000
ASUS43 KLSX 211510
RWRMO

WEATHER SUMMARY FOR MISSOURI
NATIONAL WEATHER SERVICE SPRINGFIELD MO
900 AM CST SAT JAN 21 2017

NOTE: "FAIR" INDICATES FEW OR NO CLOUDS BELOW 12,000 FEET WITH NO
       SIGNIFICANT WEATHER AND/OR OBSTRUCTIONS TO VISIBILITY.
       CURRENT SKY AND/OR WEATHER CONDITIONS ARE NOT AVAILABLE FOR
       CHILLICOTHE AND FARMINGTON.

MOZ001>031-035>038-043-044-053-054-211600-
...NORTHERN AND WESTERN MISSOURI...

CITY           SKY/WX    TMP DP  RH WIND       PRES   REMARKS
KANSAS CTY INT FOG       40  38  93 S13       29.50R VSB 1/8
KANSAS C DTWN  CLOUDY    41  40  96 S10       29.52R FOG
LEE`S SUMMIT   FOG       40  40 100 SW10      29.52R VSB 1/2
ST JOSEPH      CLOUDY    41  41 100 SW7       29.48R FOG
CHILLICOTHE      N/A     42  42 100 S8        29.50R
KIRKSVILLE     CLOUDY    41  40  96 SW14      29.48R FOG

$$
MOZ066>068-077>081-088>096-101>105-211600-
...SOUTHWEST MISSOURI...

CITY           SKY/WX    TMP DP  RH WIND       PRES   REMARKS
SPRINGFIELD    SUNNY     51  39  63 SW7       29.57R
JOPLIN         SUNNY     48  38  68 S5        29.58R
BRANSON        SUNNY     55  41  58 S5        29.59R

$$
MOZ032>034-039>042-045>050-055>058-069>072-211600-
...CENTRAL MISSOURI...

CITY           SKY/WX    TMP DP  RH WIND       PRES   REMARKS
COLUMBIA       SUNNY     51  40  65 SW9       29.53R
JEFFERSON CITY SUNNY     52  40  63 CALM      29.55R
ROLLA          SUNNY     53  43  68 SW14      29.55R
SEDALIA        SUNNY     46  40  79 SW8       29.53R
WHITEMAN AFB   MOSUNNY   45  45 100 W8        29.51S
WARRENSBURG    CLOUDY    43  39  87 S10       29.53R
OSAGE BEACH    SUNNY     51  40  65 SW6       29.57R

$$
MOZ051-052-059>065-211600-
...EAST CENTRAL MISSOURI...

CITY           SKY/WX    TMP DP  RH WIND       PRES   REMARKS
ST LOUIS INTL  MOSUNNY   56  46  69 SW6       29.56R
SPIRIT OF STL  SUNNY     57  46  66 S7        29.54R
ST CHARLES     SUNNY     50  49  96 E3        29.54S

$$
MOZ072>076-082>087-097>100-106>115-211600-
...SOUTH CENTRAL AND SOUTHEAST MISSOURI...

CITY           SKY/WX    TMP DP  RH WIND       PRES   REMARKS
CAPE GIRARDEAU CLOUDY    57  52  83 SW10      29.62R
FARMINGTON     SUNNY     52  49  89 S8        29.61R
POPLAR BLUFF   MOSUNNY   55  53  93 SW7       29.62R
WEST PLAINS    SUNNY     53  46  77 S5        29.60S

$$




USA.gov is the U.S. government's official web portal to all federal, state and local government web resources and services.